Hourly Weather Roundup
Issued by NWS Central Illinois

Home | Current Version | Previous Version | Text Only | Print | Product List | Glossary On
Versions: 1 2 3 4 5 6 7 8 9 10 11 12 13 14 15 16 17 18 19 20 21 22 23 24 25 26 27 28 29 30 31 32 33 34 35 36 37 38 39 40 41 42 43 44 45 46 47 48 49 50
000
NZUS43 KILX 222010
HWRILX

AREA WEATHER ROUNDUP
NATIONAL WEATHER SERVICE, LINCOLN IL
300 PM CDT FRI MAY 22 2015


CITY           SKY/WX    TMP DP  RH WIND       PRES   REMARKS
BLOOMINGTON    PTSUNNY   76  41  28 W9        30.22S
CHAMPAIGN      PTSUNNY   77  39  25 NW10      30.21S
DANVILLE       MOSUNNY   74  42  31 N9        30.18F
DECATUR        PTSUNNY   77  41  27 W5        30.21F
EFFINGHAM      PTSUNNY   74  41  31 W7        30.25S
FLORA          MOSUNNY   74  45  35 W7        30.25R
GALESBURG      CLOUDY    76  38  25 SW8       30.21F
JACKSONVILLE   CLOUDY    77  34  21 SW3       30.22S
LACON          PTSUNNY   76  41  28 E3        30.19F HAZE
LAWRENCEVILLE  MOSUNNY   75  47  36 W9        30.24S
LITCHFIELD     CLOUDY    73  42  33 W3        30.24S
$$


CITY           SKY/WX    TMP DP  RH WIND       PRES   REMARKS
LINCOLN        PTSUNNY   79  39  23 NW5       30.19S
MACOMB         CLOUDY    76  36  23 SW9       30.23F
MATTOON        PTSUNNY   75  40  28 CALM      30.21S
MT CARMEL AP   MOSUNNY   77  37  24 W10       30.23S
OLNEY-NOBLE AP PTSUNNY   73  48  40 CALM      30.24S
PARIS          PTSUNNY   76  40  27 CALM      30.21S
PEORIA         CLOUDY    79  40  24 W5        30.21S
PONTIAC        MOSUNNY   76  38  24 SW6       30.21R
RANTOUL        MOSUNNY   78  40  26 N6        30.20S
ROBINSON       MOSUNNY   75  46  35 W10       30.24S
SPRINGFIELD    PTSUNNY   79  37  22 NW8       30.22S
TAYLORVILLE    CLOUDY    73  37  27 CALM      30.22F
$$

...REGIONAL REPORTS...


CITY           SKY/WX    TMP DP  RH WIND       PRES   REMARKS
CHICAGO O`HARE MOSUNNY   66  29  24 E9        30.24S
KANKAKEE       SUNNY     73  45  36 N3        30.21F
MOLINE         PTSUNNY   76  36  23 VRB3      30.19S
MOUNT VERNON   PTSUNNY   75  48  38 W8        30.25S
PITTSFIELD     CLOUDY    74  42  31 SW5       30.24F
QUINCY         CLOUDY    73  42  32 SW5       30.22F
ROCKFORD       MOSUNNY   74  39  28 CALM      30.24S
$$


CITY           SKY/WX    TMP DP  RH WIND       PRES   REMARKS
BURLINGTON     CLOUDY    75  41  29 CALM      30.21S
CEDAR RAPIDS   CLOUDY    73  35  25 CALM      30.19F
DES MOINES     CLOUDY    77  37  23 NW5       30.21S
KIRKSVILLE     CLOUDY    69  54  58 SW7       30.25S
OTTUMWA        CLOUDY    76  42  29 NW6       30.21S
ST LOUIS       CLOUDY    74  50  42 W8        30.24F
$$


CITY           SKY/WX    TMP DP  RH WIND       PRES   REMARKS
TERRE HAUTE    PTSUNNY   74  48  39 S9        30.22S
EVANSVILLE     MOSUNNY   74  51  44 W10       30.26S
INDIANAPOLIS   PTSUNNY   76  43  30 W8G18     30.20S
LAFAYETTE      MOSUNNY   71  45  39 E8        30.19F
MADISON        MOSUNNY   71  38  29 VRB3      30.22S
MILWAUKEE      MOSUNNY   56  31  38 E9        30.27F
$$




USA.gov is the U.S. government's official web portal to all federal, state and local government web resources and services.